This demonstration page uses our WeatherBlox Daily Observations layout. Learn more.

41.55636, -103.73856

Hourly Observations for March 28, 2015

Temp ( °F °C ) Dew Point ( °F °C ) Humidity (%) Winds ( mph kmh ) Pressure ( in mb ) Visibility ( mi km ) Precip ( " mm )
12:53 am 00:53 Clear 38 3.3 30 -1.1 73 73 W 5 7 29.96 1015 10 16.0934 0 0
1:53 am 01:53 Clear 40 4.4 31 -0.6 70 70 N 3 6 29.95 1014 10 16.0934 0 0
2:53 am 02:53 Clear 38 3.3 29 -1.7 70 70 Calm 29.94 1014 10 16.0934 0 0
3:53 am 03:53 Clear 36 2.2 29 -1.7 76 76 NNW 5 7 29.93 1014 10 16.0934 0 0
4:53 am 04:53 Clear 32 0 27 -2.8 82 82 W 7 11 29.95 1014 10 16.0934 0 0
5:53 am 05:53 Clear 32 0 26 -3.3 79 79 WNW 6 9 29.96 1015 10 16.0934 0 0
6:53 am 06:53 Sunny 32 0 25 -3.9 75 75 Calm 29.97 1015 10 16.0934 0 0
7:53 am 07:53 Sunny 39 3.9 30 -1.1 70 70 W 3 6 29.98 1015 10 16.0934 0 0
8:53 am 08:53 Sunny 49 9.4 33 0.6 55 55 NW 6 9 29.96 1015 10 16.0934 0 0
9:53 am 09:53 Sunny 60 15.6 32 0 35 35 VRB 6 9 29.92 1013 10 16.0934 0 0
10:53 am 10:53 Sunny 67 19.4 34 1.1 30 30 W 9 15 29.89 1012 10 16.0934 0 0
11:53 am 11:53 Sunny 73 22.8 33 0.6 23 23 WSW 12 19 29.84 1011 10 16.0934 0 0
12:53 pm 12:53 Sunny 78 25.6 25 -3.9 14 14 WNW 23 37 29.8 1009 10 16.0934 0 0
1:53 pm 13:53 Sunny 80 26.7 26 -3.3 14 14 WNW 17 28 29.76 1008 10 16.0934 0 0
2:53 pm 14:53 Sunny 81 27.2 25 -3.9 13 13 W 16 26 29.73 1007 10 16.0934 0 0
3:53 pm 15:53 Sunny 82 27.8 27 -2.8 13 13 W 18 30 29.7 1006 10 16.0934 0 0
4:53 pm 16:53 Sunny 82 27.8 25 -3.9 12 12 W 25 41 29.7 1006 10 16.0934 0 0
5:53 pm 17:53 Sunny 77 25 27 -2.8 16 16 W 12 19 29.69 1005 10 16.0934 0 0
6:53 pm 18:53 Sunny 75 23.9 26 -3.3 16 16 W 15 24 29.68 1005 10 16.0934 0 0
7:53 pm 19:53 Clear 74 23.3 24 -4.4 15 15 W 17 28 29.68 1005 10 16.0934 0 0
8:53 pm 20:53 Clear 71 21.7 22 -5.6 16 16 W 18 30 29.7 1006 10 16.0934 0 0
9:53 pm 21:53 Clear 66 18.9 20 -6.7 17 17 W 10 17 29.74 1007 10 16.0934 0 0
10:23 pm 22:23 Clear 61 16.1 33 0.6 35 35 NNW 20 31 29.77 1008 9 14.48406 0 0
10:53 pm 22:53 Clear 59 15 33 0.6 38 38 NNW 21 33 29.8 1009 10 16.0934 0 0
11:53 pm 23:53 Clear 54 12.2 31 -0.6 42 42 NW 15 24 29.86 1011 10 16.0934 0 0

Powered by AerisWeather